STARLINK-32469, 61721

Orbit data source: Space-Track

STARLINK-32469, 61721 is a payload satellite owned by SpaceX/Seattle (US) in LEO that was launched on Wed, 30 Oct 2024 UTC via an FALCON 9 launch vehicle from the Air Force Eastern Test Range (AFETR). Payload-class satellites include a variety of spacecraft equipped with specific instruments for various scientific and technological missions. These include communications satellites like Starlink; space stations such as the ISS; scientific satellites like the Hubble; Earth observation satellites from companies like Planet Labs, Umbra, and HawkEye 360; GPS; miniature CubeSats for education and research; and military/defense satellites.

Loading next visibility...
Identifier
61721, 2024-196Q
Orbit
LEO
Last TLE update
16 hours ago
Origin
Manufacturer
SpaceX/Seattle
Mission
Operational Commercial Communications
Bus & Motor
STARLINK V2M, Unknown motor
Mass
730 kg wet, ~700 kg dry
Launch date (UTC)
2024-10-30 (8 months ago)
Launch vehicle
FALCON 9
Launch site
Air Force Eastern Test Range (AFETR)
Object type
Payload
Rocket body
Debris
Shape & HBR
Box + 2 Pan, 29 m
Radar Cross Section
36.964 m², Large (>1 m²)

Expand to show TLE details & history

TLE from 16 hours ago
0 STARLINK-32469
1 61721U 24196Q   25189.63474222 -.00001087  00000-0 -24591-4 0  9997
2 61721  53.1600 154.7398 0001847  93.1765 266.9447 15.30180357 39791
Epoch: 2025-07-08T15:14Z
TLE epoch observation values (Epoch: 2025-07-08T15:14:01.727Z)
Latitude
-0.00005°
Longitude
-0.59434°
Altitude
476.241 km
Speed
7.629 km/s
True Right ascension
10h 18m 57s
True Declination
0° 00' 00"
Sunlit
Object was in daylight at epoch
Visualization orbit readout
Latitude
42.17858°
Longitude
38.78177°
Altitude
478.343 km
Speed
7.632 km/s
Apparent Right ascension
10h 11m 35s
Apparent Declination
3° 56' 53"
Sunlit
Object is in daylight
Visualization observer readout
Local Sidereal Time
19:18:49
Azimuth
307.267° NW
Elevation
-30.91°
Doppler factor
1
Orbital elements
Apogee altitude
476.796 km
Perigee altitude
474.264 km
Semi-major axis
6,853.667 km
Eccentricity
0.00018
Inclination
53.16°
RAAN
154.7398°
Arg. of periapsis
93.1765°
True anomaly
Unknown
Mean anomaly
266.9447°
Eccentric anomaly
Unknown
Mean motion
3.82524 °/min
Orbital period
94.11 mins
BSTAR
-0.000024591
Loading maneuver chart data...
Loading SW <> Apogee altitude chart data...
Loading historical data...
Loading historical data...
Loading historical data...
Loading historical data...
Loading historical data...
Loading historical data...
Loading historical data...

STARLINK-32469 Visibility forecast

Observer location: undefined°, undefined°

Span
Click to sort rows by Start time (UTC) header in descending order
Start Az.
Max El. time (UTC)
Max El. Az.
Max El.
End time (UTC)
End Az.
7 mins2025-07-09 07:24:22.836Z307.827° NW2025-07-09 07:27:22.836Z290.251° WNW41.877°2025-07-09 07:31:22.836Z135.076° SSE
5 mins2025-07-10 00:21:22.836Z237.445° WSW2025-07-10 00:23:22.836Z332.106° NNW44.264°2025-07-10 00:26:22.836Z46.781° ENE
5 mins2025-07-10 06:56:22.836Z311.4° NW2025-07-10 06:58:22.836Z17.903° NNE44.96°2025-07-10 07:01:22.836Z129.731° SE
|